Regional Weather Roundup
Issued by NWS Newport/Morehead, NC

Current Version | Previous Version | Text Only | Print | Product List | Glossary On
Versions: 1 2 3 4 5 6 7 8 9 10 11 12 13 14 15 16 17 18 19 20 21 22 23 24 25 26 27 28 29 30 31 32 33 34 35 36 37 38 39 40 41 42 43 44 45 46 47 48 49 50
000 ASUS42 KMHX 212310 RWRMHX WEATHER ROUNDUP FOR EASTERN NORTH CAROLINA NATIONAL WEATHER SERVICE NEWPORT/MOREHEAD CITY NC 600 PM EST SUN DEC 21 2014 NOTE: "FAIR" INDICATES FEW OR NO CLOUDS BELOW 12,000 FEET WITH NO SIGNIFICANT WEATHER AND/OR OBSTRUCTIONS TO VISIBILITY NCZ015>017-031-032-045>047-102-103-220000- NORTH COAST CITY SKY/WX TMP DP RH WIND PRES REMARKS EDENTON N/A 40 34 78 E6 30.28S ELIZABETH CITY CLEAR 43 33 68 N7 30.29S KITTY HAWK CLEAR 43 37 77 NE7 30.27R MANTEO CLEAR 43 37 79 NE10 30.28R $$ NCZ045>047-081-094-103-104-220000- CENTRAL COAST CITY SKY/WX TMP DP RH WIND PRES REMARKS FRISCO CLOUDY 46 43 89 VRB7G16 30.24S SWANQUARTER N/A 45 N/A N/A NE5G13 30.21S $$ NCZ095-097-098-100-101-220000- SOUTHERN COAST CITY SKY/WX TMP DP RH WIND PRES REMARKS BEAUFORT CLOUDY 47 40 76 NE9 30.24R CEDAR ISLAND N/A 46 N/A N/A N18 30.30R JACKSONVILLE PTCLDY 46 36 68 NE10 30.22F PINEY ISLAND CLOUDY 49 39 68 NE13 30.25R WILMINGTON CLOUDY 47 38 71 NE9 30.20S $$ NCZ011>013-027>030-043-044-078>080-089-090>093-098-220000- COASTAL PLAIN CITY SKY/WX TMP DP RH WIND PRES REMARKS AHOSKIE CLEAR 40 32 73 CALM 30.29R CLINTON CLOUDY 46 38 73 NE3 30.25S ELIZABETHTOWN CLOUDY 48 38 68 CALM 30.22S GOLDSBORO CLOUDY 46 41 83 CALM 30.24R GREENVILLE CLOUDY 45 34 65 NE5 30.27R HAVELOCK MOCLDY 47 40 76 NE10 30.24S KENANSVILLE CLOUDY 45 35 67 NE3 30.26R KINSTON CLOUDY 46 36 66 NE5 30.26R NEW BERN MOCLDY 46 36 68 NE8 30.25S RICHLANDS CLOUDY 45 34 65 N8 30.25R ROCKY MOUNT CLOUDY 44 33 65 CALM 30.27R WASHINGTON CLOUDY 44 35 70 NE7 30.27S WHITEVILLE CLOUDY 49 38 65 NE7 30.20S $$ AMZ130-135-150-152-154-156-158-170-250-252-270-ANZ085-086-088-633-658-670-220000- MARINE OBSERVATIONS STATION/POSITION TIME TEMP WIND PRES WAVE SWELL AIR SEA DIR/SP/G HT/PER HT/PER (UTC) (F) (DEG/KT/KT) (MB) (FT/S) (FT/S) CHESAPEAKE LIGHT 2200 41 50/ 9/ 10 1026.7 64 E VA BEACH 2300 47 54 30/ 14/ 16 1025.0 2/ 4 2/10 DUCK 2300 44 46 30/ 12/ 15 1024.5 2 E DUCK 2300 46 N/A 2/ 4 10 NE DUCK 2300 51 N/A 3/ 4 OREGON INLET 2300 45 48 20/ 11/ 14 1024.5 13E OREGON INLT 2300 53 N/A 3/ 4 HATTERAS CG 2300 47 50 30/ 11/ 16 1024.1 DIAMOND BUOY 2300 55 1022.8 3/ 5 17 S OCRACOKE NOT AVBL CAPE LOOKOUT 2200 49 30/ 18/ 21 1022.9 BEAUFORT LAB 2300 47 50 10/ 9/ 12 1022.9 30 SE NEW RIVER 2300 52 60 30/ 23/ 27 1022.2 6/ 6 5 SE WRIGHTSVLE NOT AVBL 225 S CAPE HAT 2238 69 71 60/ 16/ 17 1018.6 6/ 7 2/10 41 SE CHARLESTON 2300 64 68 40/ 17/ 23 1018.7 6/ 7 2/15 $$

USA.gov is the U.S. government's official web portal to all federal, state and local government web resources and services.